TimeEDT,TemperatureF,Dew PointF,Humidity,Sea Level PressureIn,VisibilityMPH,Wind Direction,Wind SpeedMPH,Gust SpeedMPH,PrecipitationIn,Events,Conditions,WindDirDegrees,DateUTC
12:00 AM,46.9,43.0,86,30.09,10.0,Calm,Calm,-,N/A,,Clear,0,2012-10-23 04:00:00
1:00 AM,43.0,41.0,93,30.09,10.0,Calm,Calm,-,N/A,,Clear,0,2012-10-23 05:00:00
2:00 AM,43.0,41.0,93,30.09,9.0,WNW,4.6,-,N/A,,Clear,290,2012-10-23 06:00:00
3:00 AM,46.0,43.0,89,30.08,10.0,Calm,Calm,-,N/A,,Clear,0,2012-10-23 07:00:00
4:00 AM,42.1,41.0,96,30.08,9.0,Calm,Calm,-,N/A,,Clear,0,2012-10-23 08:00:00
5:00 AM,41.0,39.9,96,30.08,9.0,Calm,Calm,-,N/A,,Clear,0,2012-10-23 09:00:00
6:00 AM,42.1,41.0,96,30.09,8.0,NW,3.5,-,N/A,,Clear,310,2012-10-23 10:00:00
7:00 AM,45.0,43.0,93,30.11,8.0,Calm,Calm,-,N/A,,Clear,0,2012-10-23 11:00:00
8:00 AM,44.1,42.1,93,30.13,6.0,Calm,Calm,-,N/A,,Clear,0,2012-10-23 12:00:00
11:00 AM,59.0,48.9,69,30.13,10.0,Calm,Calm,-,N/A,,Overcast,0,2012-10-23 15:00:00
11:10 AM,-9999,-9999,N/A,-9999,-9999.0,North,-9999.0,-,N/A,,Unknown,0,2012-10-23 15:10:00
12:00 PM,61.0,50.0,67,30.13,10.0,Calm,Calm,-,N/A,,Overcast,0,2012-10-23 16:00:00
1:00 PM,62.1,51.1,67,30.09,10.0,SSW,3.5,-,0.00,Rain,Light Rain,210,2012-10-23 17:00:00
2:00 PM,64.0,53.1,67,30.08,10.0,Calm,Calm,-,0.00,,Mostly Cloudy,0,2012-10-23 18:00:00
4:00 PM,66.0,53.1,63,30.06,10.0,Calm,Calm,-,N/A,,Scattered Clouds,0,2012-10-23 20:00:00
6:00 PM,62.1,54.0,75,30.07,10.0,Calm,Calm,-,N/A,,Mostly Cloudy,0,2012-10-23 22:00:00
7:00 PM,60.1,54.0,80,30.07,10.0,Calm,Calm,-,N/A,,Scattered Clouds,0,2012-10-23 23:00:00
9:00 PM,59.0,55.9,90,30.07,9.0,Calm,Calm,-,N/A,,Overcast,0,2012-10-24 01:00:00
10:00 PM,59.0,55.9,90,30.07,8.0,Calm,Calm,-,N/A,,Mostly Cloudy,0,2012-10-24 02:00:00
11:00 PM,59.0,55.9,90,30.07,7.0,Calm,Calm,-,N/A,,Mostly Cloudy,0,2012-10-24 03:00:00